O3B FM12 (40350 NORAD) Tracking and Keplerian Element Data

This shows tracking and keplerian element data for the satellite.

Feedback or suggestion? Click here.




ElementValue
Catalog40350
NameO3B FM12
Epoch Orbit6558
Epoch Day202.22064856
Epoch Year2018
RAAN8.8781
Inclination0.0363
Eccentricity0.0002742
Argument of Perigee114.0016
Mean Anonmoly237.1434
Mean Motion5.0011565
Decay Rate-2.9E-07
L11 40350U 14083C 18202.22064856 -.00000029 00000-0 00000-0 0 9996
L22 40350 0.0363 8.8781 0002742 114.0016 237.1434 5.00115650 65587

Live tracking and technical data element details for O3B FM12 (NORAD 40350). O3B FM12 can be tracked NOW for your location showing map with azimuth and elevation plus other details from your city location.

Track the satellite on the map from your city or location and see movement details for azimuth, elevation, latitude, longitude, range, height, and movement on the map or in text.







IsCatalogInMostPopularTable: catalog: 40350, numindb: 63
Update: records affected: 1



GetName: 40350 O3B FM12

Hit Count: updated at: Mon, 23 Jul 2018 07:45:26 GMT